UAL1219 KSAN-KSFO

Flight info

Callsign UAL1219
Flight time 0h 47m
Altitude 34000
Route PADRZ2 IKAYE RIZIN SPLNT STOKD SERFR SERFR4
Aircraft A320/M-SDE3FGHIRWY/LB1

Departure

Time 2026-04-24 03:39
Airport San Diego International Airport (KSAN)

Arrival

Time 2026-04-24 04:27
Airport San Francisco International Airport (KSFO)
Time Latitude Longitude Altitude Speed Heading
2026-04-24 03:10 32.73338 -117.20463 26 ft 0 kts 102°
2026-04-24 03:26 32.73341 -117.20485 29 ft 3 kts 97°
2026-04-24 03:26 32.73343 -117.20509 27 ft 3 kts 90°
2026-04-24 03:27 32.73343 -117.20533 26 ft 3 kts 83°
2026-04-24 03:27 32.73339 -117.20557 25 ft 3 kts 73°
2026-04-24 03:27 32.73334 -117.20575 27 ft 1 kts 64°
2026-04-24 03:27 32.73332 -117.20580 30 ft 0 kts 64°
2026-04-24 03:29 32.73334 -117.20575 27 ft 0 kts 64°
2026-04-24 03:30 32.73336 -117.20572 25 ft 3 kts 58°
2026-04-24 03:31 32.73383 -117.20559 25 ft 9 kts
2026-04-24 03:31 32.73434 -117.20557 26 ft 7 kts 358°
2026-04-24 03:31 32.73438 -117.20557 26 ft 0 kts 358°
2026-04-24 03:31 32.73439 -117.20557 25 ft 0 kts 358°
2026-04-24 03:32 32.73443 -117.20558 23 ft 0 kts 359°
2026-04-24 03:32 32.73445 -117.20558 23 ft 0 kts 359°
2026-04-24 03:32 32.73448 -117.20558 23 ft 2 kts 359°
2026-04-24 03:33 32.73524 -117.20499 22 ft 29 kts 57°
2026-04-24 03:33 32.73573 -117.20291 29 ft 28 kts 105°
2026-04-24 03:33 32.73515 -117.20052 26 ft 34 kts 105°
2026-04-24 03:33 32.73445 -117.19760 27 ft 39 kts 105°
2026-04-24 03:34 32.73365 -117.19436 27 ft 43 kts 106°
2026-04-24 03:34 32.73283 -117.19096 28 ft 39 kts 106°
2026-04-24 03:34 32.73210 -117.18790 27 ft 38 kts 107°
2026-04-24 03:34 32.73135 -117.18484 26 ft 30 kts 105°
2026-04-24 03:35 32.73087 -117.18285 24 ft 27 kts 105°
2026-04-24 03:35 32.73033 -117.18059 21 ft 25 kts 107°
2026-04-24 03:35 32.72990 -117.17885 20 ft 17 kts 106°
2026-04-24 03:35 32.72963 -117.17772 19 ft 7 kts 105°
2026-04-24 03:36 32.72962 -117.17770 19 ft 0 kts 105°
2026-04-24 03:37 32.72962 -117.17767 19 ft 2 kts 105°
2026-04-24 03:37 32.72958 -117.17751 19 ft 4 kts 105°
2026-04-24 03:37 32.72949 -117.17704 20 ft 8 kts 97°
2026-04-24 03:38 32.72965 -117.17631 22 ft 11 kts 66°
2026-04-24 03:38 32.73024 -117.17610 22 ft 8 kts 299°
2026-04-24 03:38 32.73028 -117.17628 24 ft 0 kts 287°
2026-04-24 03:38 32.73029 -117.17630 24 ft 2 kts 287°
2026-04-24 03:39 32.73110 -117.17958 20 ft 94 kts 285°
2026-04-24 03:39 32.73277 -117.18641 29 ft 162 kts 286°
2026-04-24 03:39 32.73643 -117.20129 601 ft 202 kts 287°
2026-04-24 03:39 32.74259 -117.21747 1377 ft 229 kts 299°
2026-04-24 03:40 32.75478 -117.24016 2728 ft 253 kts 304°
2026-04-24 03:40 32.76140 -117.25168 3583 ft 257 kts 304°
2026-04-24 03:40 32.77161 -117.26938 4904 ft 263 kts 304°
2026-04-24 03:40 32.78196 -117.28754 6198 ft 268 kts 303°
2026-04-24 03:41 32.79241 -117.30616 7452 ft 273 kts 303°
2026-04-24 03:41 32.80320 -117.32504 8663 ft 279 kts 305°
2026-04-24 03:41 32.81490 -117.34370 9833 ft 284 kts 307°
2026-04-24 03:41 32.82731 -117.36265 10694 ft 302 kts 308°
2026-04-24 03:42 32.84080 -117.38304 11304 ft 323 kts 308°
2026-04-24 03:42 32.85465 -117.40411 12188 ft 331 kts 308°
2026-04-24 03:42 32.86910 -117.42622 13167 ft 337 kts 307°
2026-04-24 03:42 32.88353 -117.44848 14129 ft 342 kts 307°
2026-04-24 03:43 32.89810 -117.47112 15072 ft 347 kts 307°
2026-04-24 03:43 32.91269 -117.49383 15956 ft 352 kts 307°
2026-04-24 03:43 32.92765 -117.51711 16824 ft 357 kts 307°
2026-04-24 03:43 32.94284 -117.54073 17675 ft 361 kts 307°
2026-04-24 03:44 32.95822 -117.56465 18516 ft 366 kts 307°
2026-04-24 03:44 32.97376 -117.58888 19357 ft 371 kts 307°
2026-04-24 03:44 32.98952 -117.61348 20247 ft 376 kts 307°
2026-04-24 03:44 33.00551 -117.63842 21271 ft 382 kts 307°
2026-04-24 03:45 33.02175 -117.66381 22177 ft 387 kts 307°
2026-04-24 03:45 33.03815 -117.68951 22925 ft 392 kts 307°
2026-04-24 03:45 33.05475 -117.71548 23670 ft 396 kts 308°
2026-04-24 03:45 33.07363 -117.73964 24377 ft 401 kts 318°
2026-04-24 03:46 33.09498 -117.76138 25050 ft 405 kts 319°
2026-04-24 03:46 33.11658 -117.78324 25690 ft 409 kts 319°
2026-04-24 03:46 33.13841 -117.80535 26306 ft 413 kts 319°
2026-04-24 03:46 33.16041 -117.82769 26909 ft 417 kts 319°
2026-04-24 03:47 33.18259 -117.85030 27469 ft 421 kts 319°
2026-04-24 03:47 33.20468 -117.87345 28025 ft 425 kts 317°
2026-04-24 03:47 33.22622 -117.89784 28564 ft 428 kts 315°
2026-04-24 03:47 33.24730 -117.92311 29090 ft 432 kts 314°
2026-04-24 03:48 33.26832 -117.94900 29609 ft 435 kts 314°
2026-04-24 03:48 33.28944 -117.97514 30120 ft 439 kts 314°
2026-04-24 03:48 33.31081 -118.00138 30610 ft 442 kts 314°
2026-04-24 03:48 33.33253 -118.02767 31092 ft 446 kts 314°
2026-04-24 03:49 33.35452 -118.05401 31559 ft 449 kts 315°
2026-04-24 03:49 33.37661 -118.08033 32187 ft 447 kts 315°
2026-04-24 03:49 33.39862 -118.10651 32847 ft 446 kts 315°
2026-04-24 03:49 33.42057 -118.13266 33492 ft 444 kts 315°
2026-04-24 03:50 33.44250 -118.15885 33880 ft 444 kts 315°
2026-04-24 03:50 33.46434 -118.18502 33990 ft 448 kts 315°
2026-04-24 03:50 33.48636 -118.21147 34012 ft 460 kts 315°
2026-04-24 03:51 33.53235 -118.26681 34009 ft 473 kts 315°
2026-04-24 03:51 33.57880 -118.32280 34009 ft 473 kts 314°
2026-04-24 03:52 33.62518 -118.37889 34009 ft 473 kts 314°
2026-04-24 03:52 33.67155 -118.43493 34009 ft 473 kts 314°
2026-04-24 03:53 33.71792 -118.49108 34009 ft 473 kts 314°
2026-04-24 03:53 33.76422 -118.54732 34010 ft 473 kts 314°
2026-04-24 03:54 33.81051 -118.60355 34010 ft 473 kts 314°
2026-04-24 03:54 33.85690 -118.65988 34011 ft 473 kts 314°
2026-04-24 03:55 33.90318 -118.71626 34011 ft 473 kts 314°
2026-04-24 03:55 33.94942 -118.77277 34011 ft 473 kts 314°
2026-04-24 03:56 33.99567 -118.82931 34011 ft 473 kts 314°
2026-04-24 03:56 34.04182 -118.88588 34012 ft 474 kts 314°
2026-04-24 03:57 34.08846 -118.94301 34048 ft 477 kts 314°
2026-04-24 03:57 34.13495 -119.00014 34196 ft 478 kts 314°
2026-04-24 03:57 34.15816 -119.02870 34636 ft 474 kts 314°
2026-04-24 03:58 34.18113 -119.05721 34850 ft 473 kts 312°
2026-04-24 03:58 34.20128 -119.08820 34721 ft 470 kts 301°
2026-04-24 03:58 34.21637 -119.12300 34266 ft 468 kts 294°
2026-04-24 03:58 34.22880 -119.15952 33996 ft 471 kts 291°
2026-04-24 03:59 34.24078 -119.19568 33996 ft 457 kts 292°
2026-04-24 03:59 34.27053 -119.26526 34010 ft 473 kts 301°
2026-04-24 04:00 34.30646 -119.33199 34008 ft 474 kts 304°
2026-04-24 04:00 34.34302 -119.39843 34007 ft 474 kts 303°
2026-04-24 04:01 34.37815 -119.46596 34008 ft 474 kts 301°
2026-04-24 04:01 34.41346 -119.53326 34011 ft 473 kts 308°
2026-04-24 04:02 34.45866 -119.59148 34004 ft 476 kts 314°
2026-04-24 04:02 34.50551 -119.64883 33996 ft 479 kts 314°
2026-04-24 04:03 34.55237 -119.70609 34013 ft 478 kts 314°
2026-04-24 04:03 34.59912 -119.76369 34012 ft 480 kts 314°
2026-04-24 04:04 34.64583 -119.82157 34010 ft 479 kts 314°
2026-04-24 04:04 34.69257 -119.87950 34012 ft 480 kts 314°
2026-04-24 04:05 34.73933 -119.93756 34009 ft 480 kts 314°
2026-04-24 04:05 34.78571 -119.99515 34019 ft 479 kts 314°
2026-04-24 04:06 34.83221 -120.05307 34019 ft 479 kts 314°
2026-04-24 04:06 34.87861 -120.11092 34017 ft 478 kts 314°
2026-04-24 04:07 34.92497 -120.16869 34016 ft 477 kts 314°
2026-04-24 04:07 34.97132 -120.22666 34017 ft 477 kts 314°
2026-04-24 04:08 35.01756 -120.28474 34015 ft 476 kts 314°
2026-04-24 04:08 35.06364 -120.34259 34021 ft 475 kts 314°
2026-04-24 04:09 35.11015 -120.39980 34014 ft 475 kts 316°
2026-04-24 04:09 35.15894 -120.45436 34014 ft 476 kts 318°
2026-04-24 04:10 35.20844 -120.50818 34011 ft 476 kts 318°
2026-04-24 04:10 35.25759 -120.56263 34010 ft 476 kts 317°
2026-04-24 04:11 35.33053 -120.64511 34021 ft 475 kts 317°
2026-04-24 04:11 35.37887 -120.69984 34005 ft 478 kts 317°
2026-04-24 04:12 35.42792 -120.75516 34009 ft 477 kts 317°
2026-04-24 04:12 35.52904 -120.86027 34005 ft 477 kts 323°
2026-04-24 04:13 35.63493 -120.95868 34013 ft 477 kts 322°
2026-04-24 04:13 35.68761 -121.00777 33661 ft 474 kts 322°
2026-04-24 04:13 35.74046 -121.05709 33170 ft 476 kts 322°
2026-04-24 04:14 35.79329 -121.10645 32665 ft 477 kts 322°
2026-04-24 04:14 35.84629 -121.15597 32169 ft 478 kts 322°
2026-04-24 04:14 35.89935 -121.20562 31662 ft 480 kts 322°
2026-04-24 04:14 35.95256 -121.25549 31174 ft 481 kts 322°
2026-04-24 04:15 36.00594 -121.30569 30673 ft 483 kts 322°
2026-04-24 04:15 36.05954 -121.35626 30169 ft 485 kts 322°
2026-04-24 04:15 36.11486 -121.40047 29648 ft 457 kts 328°
2026-04-24 04:15 36.16684 -121.44101 29136 ft 432 kts 327°
2026-04-24 04:16 36.21741 -121.48078 28156 ft 426 kts 327°
2026-04-24 04:16 36.26686 -121.51958 26870 ft 417 kts 327°
2026-04-24 04:16 36.31554 -121.55780 25526 ft 411 kts 327°
2026-04-24 04:16 36.36343 -121.59544 24354 ft 404 kts 327°
2026-04-24 04:17 36.40982 -121.63183 23331 ft 395 kts 327°
2026-04-24 04:17 36.45582 -121.66792 22283 ft 387 kts 327°
2026-04-24 04:17 36.50152 -121.70389 21156 ft 380 kts 327°
2026-04-24 04:17 36.54521 -121.73838 20015 ft 373 kts 327°
2026-04-24 04:18 36.58862 -121.77274 18829 ft 366 kts 327°
2026-04-24 04:18 36.63118 -121.80652 17613 ft 359 kts 327°
2026-04-24 04:18 36.67292 -121.83968 16419 ft 352 kts 327°
2026-04-24 04:18 36.71388 -121.87226 15227 ft 346 kts 327°
2026-04-24 04:19 36.75713 -121.89834 14925 ft 347 kts 344°
2026-04-24 04:19 36.80331 -121.91115 14395 ft 342 kts 347°
2026-04-24 04:19 36.84930 -121.92385 13236 ft 336 kts 347°
2026-04-24 04:19 36.89461 -121.93670 12054 ft 331 kts 347°
2026-04-24 04:20 36.93911 -121.94928 10905 ft 325 kts 347°
2026-04-24 04:20 36.98303 -121.96383 9932 ft 317 kts 342°
2026-04-24 04:20 37.02415 -121.98043 9917 ft 303 kts 341°
2026-04-24 04:20 37.06226 -121.99585 9930 ft 287 kts 342°
2026-04-24 04:21 37.10059 -122.01104 9671 ft 287 kts 342°
2026-04-24 04:21 37.13874 -122.02597 9420 ft 287 kts 342°
2026-04-24 04:21 37.17688 -122.04087 9169 ft 287 kts 342°
2026-04-24 04:21 37.21443 -122.05554 8911 ft 274 kts 342°
2026-04-24 04:22 37.25065 -122.06851 8196 ft 276 kts 355°
2026-04-24 04:22 37.28912 -122.06365 7307 ft 278 kts
2026-04-24 04:22 37.32715 -122.05690 6670 ft 270 kts
2026-04-24 04:22 37.36354 -122.05038 6097 ft 262 kts
2026-04-24 04:23 37.39946 -122.04394 5408 ft 259 kts
2026-04-24 04:23 37.43478 -122.04872 4735 ft 256 kts 347°
2026-04-24 04:23 37.46729 -122.06573 4033 ft 253 kts 333°
2026-04-24 04:23 37.49365 -122.09426 3318 ft 250 kts 315°
2026-04-24 04:24 37.51630 -122.12655 2873 ft 239 kts 300°
2026-04-24 04:24 37.53261 -122.16496 2923 ft 248 kts 297°
2026-04-24 04:24 37.54812 -122.20180 2731 ft 228 kts 297°
2026-04-24 04:24 37.56266 -122.23624 2155 ft 214 kts 297°
2026-04-24 04:25 37.57523 -122.26607 1672 ft 175 kts 297°
2026-04-24 04:25 37.58265 -122.28370 1348 ft 172 kts 297°
2026-04-24 04:25 37.59610 -122.31566 803 ft 140 kts 297°
2026-04-24 04:25 37.60316 -122.33245 519 ft 140 kts 297°
2026-04-24 04:26 37.60770 -122.34325 363 ft 139 kts 297°
2026-04-24 04:26 37.61221 -122.35407 199 ft 139 kts 297°
2026-04-24 04:26 37.61518 -122.36135 46 ft 135 kts 297°
2026-04-24 04:26 37.61909 -122.37063 19 ft 108 kts 299°
2026-04-24 04:27 37.62169 -122.37663 20 ft 57 kts 297°
2026-04-24 04:27 37.62340 -122.38087 20 ft 44 kts 291°
2026-04-24 04:27 37.62288 -122.38240 22 ft 16 kts 218°
2026-04-24 04:27 37.62172 -122.38308 20 ft 21 kts 197°
2026-04-24 04:28 37.62053 -122.38378 22 ft 12 kts 247°
2026-04-24 04:28 37.62085 -122.38480 20 ft 24 kts 296°
2026-04-24 04:28 37.62170 -122.38718 14 ft 28 kts 269°
2026-04-24 04:28 37.62107 -122.38845 13 ft 8 kts 207°